Time,TemperatureF,DewpointF,PressureIn,WindDirection,WindDirectionDegrees,WindSpeedMPH,WindSpeedGustMPH,Humidity,HourlyPrecipIn,Conditions,Clouds,dailyrainin,SolarRadiationWatts/m^2,SoftwareType,DateUTC
2013-08-16 00:00:00,85.0,53.0,-100.00,ENE,66,2.0,5.0,33,0.00,,,0.00,1.000000,,2013-08-16 07:00:00,
2013-08-16 00:01:00,85.0,53.0,-100.00,ENE,66,2.0,5.0,33,0.00,,,0.00,1.000000,,2013-08-16 07:01:00,
2013-08-16 00:42:00,84.0,53.0,-100.00,ENE,70,2.0,4.0,34,0.00,,,0.00,1.000000,,2013-08-16 07:42:00,
2013-08-16 00:52:00,84.0,53.0,-100.00,ENE,70,2.0,4.0,34,0.00,,,0.00,1.000000,,2013-08-16 07:52:00,
2013-08-16 01:01:00,84.0,53.0,-100.00,ENE,70,2.0,4.0,34,0.00,,,0.00,1.000000,,2013-08-16 08:01:00,
2013-08-16 01:42:00,80.0,51.0,-100.00,ENE,78,1.0,4.0,36,0.00,,,0.00,1.000000,,2013-08-16 08:42:00,
2013-08-16 01:52:00,80.0,51.0,-100.00,ENE,78,1.0,4.0,36,0.00,,,0.00,1.000000,,2013-08-16 08:52:00,
2013-08-16 02:01:00,80.0,51.0,-100.00,ENE,78,1.0,4.0,36,0.00,,,0.00,1.000000,,2013-08-16 09:01:00,
2013-08-16 02:42:00,80.0,51.0,-100.00,WNW,303,3.0,5.0,37,0.00,,,0.00,1.000000,,2013-08-16 09:42:00,
2013-08-16 02:53:00,80.0,51.0,-100.00,WNW,303,3.0,5.0,37,0.00,,,0.00,1.000000,,2013-08-16 09:53:00,
2013-08-16 03:03:00,80.0,51.0,-100.00,WNW,303,3.0,5.0,37,0.00,,,0.00,1.000000,,2013-08-16 10:03:00,
2013-08-16 03:42:00,80.0,53.0,-100.00,NNE,15,3.0,5.0,39,0.00,,,0.00,1.000000,,2013-08-16 10:42:00,
2013-08-16 03:52:00,80.0,53.0,-100.00,NNE,15,3.0,5.0,39,0.00,,,0.00,1.000000,,2013-08-16 10:52:00,
2013-08-16 04:02:00,80.0,53.0,-100.00,NNE,15,3.0,5.0,39,0.00,,,0.00,1.000000,,2013-08-16 11:02:00,
2013-08-16 04:42:00,79.0,52.0,-100.00,WNW,284,2.0,8.0,39,0.00,,,0.00,1.000000,,2013-08-16 11:42:00,
2013-08-16 04:52:00,79.0,52.0,-100.00,WNW,284,2.0,8.0,39,0.00,,,0.00,1.000000,,2013-08-16 11:52:00,
2013-08-16 05:02:00,79.0,52.0,-100.00,WNW,284,2.0,8.0,39,0.00,,,0.00,1.000000,,2013-08-16 12:02:00,
2013-08-16 05:42:00,78.0,53.0,-100.00,WSW,251,3.0,7.0,42,0.00,,,0.00,1.000000,,2013-08-16 12:42:00,
2013-08-16 05:52:00,78.0,53.0,-100.00,WSW,251,3.0,7.0,42,0.00,,,0.00,1.000000,,2013-08-16 12:52:00,
2013-08-16 06:02:00,78.0,53.0,-100.00,WSW,251,3.0,7.0,42,0.00,,,0.00,1.000000,,2013-08-16 13:02:00,
2013-08-16 06:42:00,76.0,56.0,-100.00,NNW,328,3.0,5.0,50,0.00,,,-99.99,4.000000,,2013-08-16 13:42:00,
2013-08-16 06:53:00,76.0,56.0,-100.00,NNW,328,3.0,5.0,50,0.00,,,-99.99,4.000000,,2013-08-16 13:53:00,
2013-08-16 07:01:00,76.0,56.0,-100.00,NNW,328,3.0,5.0,50,0.00,,,-99.99,4.000000,,2013-08-16 14:01:00,
2013-08-16 07:42:00,85.0,61.0,-100.00,ENE,61,3.0,5.0,45,0.00,,,0.00,98.000000,,2013-08-16 14:42:00,
2013-08-16 07:52:00,85.0,61.0,-100.00,ENE,61,3.0,5.0,45,0.00,,,0.00,98.000000,,2013-08-16 14:52:00,
2013-08-16 08:01:00,85.0,61.0,-100.00,ENE,61,3.0,5.0,45,0.00,,,0.00,98.000000,,2013-08-16 15:01:00,
2013-08-16 08:43:00,91.0,59.0,-100.00,SSW,205,3.0,4.0,35,0.00,,,0.00,303.000000,,2013-08-16 15:43:00,
2013-08-16 08:56:00,91.0,59.0,-100.00,SSW,205,3.0,4.0,35,0.00,,,0.00,303.000000,,2013-08-16 15:56:00,
2013-08-16 09:04:00,91.0,59.0,-100.00,SSW,205,3.0,4.0,35,0.00,,,0.00,303.000000,,2013-08-16 16:04:00,
2013-08-16 09:44:00,96.0,60.0,-100.00,South,191,3.0,7.0,31,0.00,,,0.00,507.000000,,2013-08-16 16:44:00,
2013-08-16 09:57:00,96.0,60.0,-100.00,South,191,3.0,7.0,31,0.00,,,0.00,507.000000,,2013-08-16 16:57:00,
2013-08-16 10:03:00,96.0,60.0,-100.00,South,191,3.0,7.0,31,0.00,,,0.00,507.000000,,2013-08-16 17:03:00,
2013-08-16 10:47:00,100.0,59.0,-100.00,SSE,150,4.0,7.0,26,0.00,,,0.00,689.000000,,2013-08-16 17:47:00,
2013-08-16 11:00:00,100.0,59.0,-100.00,SSE,150,4.0,7.0,26,0.00,,,0.00,689.000000,,2013-08-16 18:00:00,
2013-08-16 11:06:00,100.0,59.0,-100.00,SSE,150,4.0,7.0,26,0.00,,,0.00,689.000000,,2013-08-16 18:06:00,
2013-08-16 11:50:00,-999.0,-99.9,-100.00,East,82,4.0,9.0,23,0.00,,,-99.99,830.000000,,2013-08-16 18:50:00,
2013-08-16 12:02:00,102.0,57.0,-100.00,East,82,4.0,9.0,23,0.00,,,-99.99,830.000000,,2013-08-16 19:02:00,
2013-08-16 12:46:00,105.0,57.0,-100.00,West,261,5.0,13.0,21,0.00,,,0.00,917.000000,,2013-08-16 19:46:00,
2013-08-16 12:55:00,105.0,57.0,-100.00,West,261,5.0,13.0,21,0.00,,,0.00,917.000000,,2013-08-16 19:55:00,
2013-08-16 13:02:00,105.0,57.0,-100.00,West,261,5.0,13.0,21,0.00,,,0.00,917.000000,,2013-08-16 20:02:00,
2013-08-16 13:44:00,105.0,50.0,-100.00,ENE,75,4.0,12.0,16,0.00,,,0.00,817.000000,,2013-08-16 20:44:00,
2013-08-16 13:52:00,105.0,50.0,-100.00,ENE,75,4.0,12.0,16,0.00,,,0.00,817.000000,,2013-08-16 20:52:00,
2013-08-16 14:01:00,105.0,50.0,-100.00,ENE,75,4.0,12.0,16,0.00,,,0.00,817.000000,,2013-08-16 21:01:00,
2013-08-16 14:40:00,-999.0,-99.9,-100.00,SSW,194,7.0,15.0,-999,0.00,,,0.00,783.000000,,2013-08-16 21:40:00,
2013-08-16 14:54:00,107.0,50.0,-100.00,SSW,194,7.0,15.0,15,0.00,,,0.00,783.000000,,2013-08-16 21:54:00,
2013-08-16 15:07:00,107.0,50.0,-100.00,SSW,194,7.0,15.0,15,0.00,,,0.00,783.000000,,2013-08-16 22:07:00,
2013-08-16 15:08:00,109.0,49.0,-100.00,SW,223,6.0,13.0,14,0.00,,,0.00,901.000000,,2013-08-16 22:08:00,
2013-08-16 15:43:00,109.0,49.0,-100.00,SW,223,6.0,13.0,14,0.00,,,0.00,901.000000,,2013-08-16 22:43:00,
2013-08-16 15:52:00,109.0,49.0,-100.00,SW,223,6.0,13.0,14,0.00,,,0.00,901.000000,,2013-08-16 22:52:00,
2013-08-16 16:42:00,108.0,48.0,-100.00,SW,236,5.0,14.0,14,0.00,,,0.00,650.000000,,2013-08-16 23:42:00,
2013-08-16 16:52:00,108.0,48.0,-100.00,SW,236,5.0,14.0,14,0.00,,,0.00,650.000000,,2013-08-16 23:52:00,
2013-08-16 17:01:00,108.0,48.0,-100.00,SW,236,5.0,14.0,14,0.00,,,0.00,650.000000,,2013-08-17 00:01:00,
2013-08-16 17:42:00,104.0,45.0,-100.00,SW,231,8.0,15.0,14,0.00,,,0.00,358.000000,,2013-08-17 00:42:00,
2013-08-16 17:52:00,104.0,45.0,-100.00,SW,231,8.0,15.0,14,0.00,,,0.00,358.000000,,2013-08-17 00:52:00,
2013-08-16 18:01:00,104.0,45.0,-100.00,SW,231,8.0,15.0,14,0.00,,,0.00,358.000000,,2013-08-17 01:01:00,
2013-08-16 18:42:00,101.0,48.0,-100.00,SW,230,8.0,12.0,17,0.00,,,0.00,95.000000,,2013-08-17 01:42:00,
2013-08-16 18:52:00,101.0,48.0,-100.00,SW,230,8.0,12.0,17,0.00,,,0.00,95.000000,,2013-08-17 01:52:00,
2013-08-16 19:01:00,101.0,48.0,-100.00,SW,230,8.0,12.0,17,0.00,,,0.00,95.000000,,2013-08-17 02:01:00,
2013-08-16 19:42:00,94.0,60.0,-100.00,SSW,210,6.0,12.0,32,0.00,,,0.00,15.000000,,2013-08-17 02:42:00,
2013-08-16 19:52:00,94.0,60.0,-100.00,SSW,210,6.0,12.0,32,0.00,,,0.00,15.000000,,2013-08-17 02:52:00,
2013-08-16 20:01:00,94.0,60.0,-100.00,SSW,210,6.0,12.0,32,0.00,,,0.00,15.000000,,2013-08-17 03:01:00,
2013-08-16 20:43:00,94.0,54.0,-100.00,West,265,7.0,15.0,26,0.00,,,0.00,1.000000,,2013-08-17 03:43:00,
2013-08-16 20:53:00,94.0,54.0,-100.00,West,265,7.0,15.0,26,0.00,,,0.00,1.000000,,2013-08-17 03:53:00,
2013-08-16 21:03:00,94.0,54.0,-100.00,West,265,7.0,15.0,26,0.00,,,0.00,1.000000,,2013-08-17 04:03:00,
2013-08-16 21:44:00,90.0,54.0,-100.00,NW,312,2.0,21.0,30,0.00,,,0.00,1.000000,,2013-08-17 04:44:00,
2013-08-16 21:53:00,90.0,54.0,-100.00,NW,312,2.0,21.0,30,0.00,,,0.00,1.000000,,2013-08-17 04:53:00,
2013-08-16 22:03:00,90.0,54.0,-100.00,NW,312,2.0,21.0,30,0.00,,,0.00,1.000000,,2013-08-17 05:03:00,
2013-08-16 22:42:00,87.0,55.0,-100.00,SSE,167,4.0,7.0,34,0.00,,,0.00,1.000000,,2013-08-17 05:42:00,
2013-08-16 22:52:00,87.0,55.0,-100.00,SSE,167,4.0,7.0,34,0.00,,,0.00,1.000000,,2013-08-17 05:52:00,
2013-08-16 23:01:00,87.0,55.0,-100.00,SSE,167,4.0,7.0,34,0.00,,,0.00,1.000000,,2013-08-17 06:01:00,
2013-08-16 23:42:00,84.0,57.0,-100.00,SW,233,2.0,7.0,40,0.00,,,0.00,1.000000,,2013-08-17 06:42:00,
2013-08-16 23:52:00,84.0,57.0,-100.00,SW,233,2.0,7.0,40,0.00,,,0.00,1.000000,,2013-08-17 06:52:00,